Location: Ulm
(48.3980°N, 9.9777°E)
Time: 19:30:51
(UTC+02:00)

Envisat - Visible Passes

Search period start: 17 July 2018 00:00
Search period end: 27 July 2018 00:00
Orbit: 764 x 766 km, 98.2° (Epoch: 17 July)

Date Brightness Start Highest point End Pass type
(mag) Time Alt. Az. Time Alt. Az. Time Alt. Az.
18 Jul 5.6 21:44:58 10° SW 21:48:31 19° W 21:52:04 10° NW visible
20 Jul 6.0 22:13:07 10° W 22:14:28 11° W 22:15:48 10° WNW visible
23 Jul 5.8 22:00:32 10° WSW 22:03:07 14° W 22:05:43 10° NW visible
26 Jul 5.6 21:48:30 10° SW 21:51:48 17° W 21:55:08 10° NW visible
